Location: Novokuznetsk
(53.7500°N, 87.1000°E)
Time: 11:21:34
(UTC+06:00)

ISS - Visible Passes

Search period start: 18 May 2021 00:00
Search period end: 28 May 2021 00:00
Orbit: 417 x 422 km, 51.6° (Epoch: 18 May)

Date Brightness Start Highest point End Pass type
(mag) Time Alt. Az. Time Alt. Az. Time Alt. Az.
18 May -3.5 00:41:08 10° W 00:44:15 43° SSW 00:44:15 43° SSW visible
18 May -3.7 22:17:02 10° WSW 22:20:21 56° S 22:23:40 10° E visible
18 May -3.7 23:53:42 10° W 23:56:59 51° SSW 23:57:43 41° SSE visible
19 May -3.6 21:29:40 10° WSW 21:32:57 50° SSE 21:36:14 10° E visible
19 May -3.8 23:06:15 10° W 23:09:34 58° S 23:11:30 22° ESE visible
20 May -1.9 00:43:07 10° W 00:44:25 19° WSW 00:44:25 19° WSW visible
20 May -3.8 22:18:49 10° W 22:22:09 61° S 22:25:23 11° ESE visible
20 May -3.0 23:55:35 10° W 23:58:19 34° SW 23:58:19 34° SW visible
21 May -3.7 21:31:23 10° WSW 21:34:43 60° S 21:38:03 10° E visible
21 May -3.4 23:08:05 10° W 23:11:20 43° SSW 23:12:16 33° SSE visible
22 May -3.6 22:20:37 10° W 22:23:55 51° SSW 22:26:14 17° ESE visible
22 May -1.9 23:57:40 10° W 23:59:10 18° WSW 23:59:10 18° WSW visible
23 May -3.6 21:33:10 10° W 21:36:29 57° S 21:39:49 10° ESE visible
23 May -2.7 23:10:02 10° W 23:12:57 27° SSW 23:13:10 27° SSW visible
24 May -3.0 22:22:29 10° W 22:25:36 35° SSW 22:27:12 22° SSE visible
25 May -3.2 21:34:58 10° W 21:38:12 43° SSW 21:41:15 11° SE visible
25 May -1.7 23:12:23 10° WSW 23:14:12 15° SW 23:14:12 15° SW visible
26 May -2.1 22:24:33 10° W 22:27:09 21° SSW 22:28:16 18° S visible
27 May -2.5 21:36:54 10° W 21:39:49 27° SSW 21:42:23 12° SSE visible
